Regional Weather Roundup
Issued by NWS

Home | Current Version | Previous Version | Graphics & Text | Print | Product List | Glossary Off
Versions: 1 2 3 4 5 6 7 8 9 10 11 12 13 14 15 16 17 18 19 20 21 22 23 24 25 26 27 28 29 30 31 32 33 34 35 36 37 38 39 40 41 42 43 44 45 46 47 48 49 50

000
ASUS43 KLSX 031707
RWRMO

WEATHER ROUNDUP FOR MISSOURI
NATIONAL WEATHER SERVICE ST LOUIS MO
1200 PM CDT MON AUG 03 2015

NOTE: "FAIR" INDICATES FEW OR NO CLOUDS BELOW 12,000 FEET WITH NO
       SIGNIFICANT WEATHER AND/OR OBSTRUCTIONS TO VISIBILITY.
       CURRENT SKY AND/OR WEATHER CONDITIONS ARE NOT AVAILABLE FOR
       CHILLICOTHE AND FARMINGTON.

MOZ001>031-035>038-043-044-053-054-031800-
...NORTHERN AND WESTERN MISSOURI...

CITY           SKY/WX    TMP DP  RH WIND       PRES   REMARKS
KANSAS CTY INT PTSUNNY   86  72  62 SW6       29.95F HX  92
KANSAS C DTWN  SUNNY     88  71  57 SW8       29.92F HX  94
LEE`S SUMMIT   SUNNY     86  70  58 W3        29.94F HX  90
ST JOSEPH      PTSUNNY   76  69  79 N9        29.99R
CHILLICOTHE      N/A     74  65  73 CALM      29.98R
KIRKSVILLE     MOSUNNY   80  59  48 N7        29.97S

$$
MOZ066>068-077>081-088>096-101>105-031800-
...SOUTHWEST MISSOURI...

CITY           SKY/WX    TMP DP  RH WIND       PRES   REMARKS
SPRINGFIELD    SUNNY     89  64  43 W7        29.98F HX  90
JOPLIN         MOSUNNY   92  66  42 W9        29.97S HX  94

$$
MOZ032>034-039>042-045>050-055>058-069>072-031800-
...CENTRAL MISSOURI...

CITY           SKY/WX    TMP DP  RH WIND       PRES   REMARKS
COLUMBIA       PTSUNNY   85  67  54 NW7       29.95S
JEFFERSON CITY PTSUNNY   83  65  54 NW7       29.92F
ROLLA          MOSUNNY   85  69  58 W9        29.94F HAZE
SEDALIA        MOSUNNY   84  66  54 CALM      29.96F
WHITEMAN AFB   MOSUNNY   81  67  61 VRB1      29.94F
FT LEONARD WD  MOSUNNY   87  67  52 NW5       29.97S
OSAGE BEACH    SUNNY     86  66  51 W8        29.96S

$$
MOZ051-052-059>065-031800-
...EAST CENTRAL MISSOURI...

CITY           SKY/WX    TMP DP  RH WIND       PRES   REMARKS
ST LOUIS INTL  MOSUNNY   89  64  43 NW7       29.91F HX  90
SPIRIT OF STL  MOSUNNY   88  69  53 VRB6      29.90S HX  92
ST CHARLES     SUNNY     87  64  46 W8        29.90S

$$
MOZ072>076-082>087-097>100-106>115-031800-
...SOUTH CENTRAL AND SOUTHEAST MISSOURI...

CITY           SKY/WX    TMP DP  RH WIND       PRES   REMARKS
CAPE GIRARDEAU SUNNY     89  72  56 VRB3      29.91F HX  96
FARMINGTON     SUNNY     88  68  51 W8        29.99S HX  91
POPLAR BLUFF   MOSUNNY   91  68  46 VRB6      29.93F HX  95
WEST PLAINS    SUNNY     88  67  49 W7        30.00S HX  91
$$


USA.gov is the U.S. government's official web portal to all federal, state and local government web resources and services.